Вернуться в каталог

FENGYUN 1C DEB

АктивенPO
NORAD 31658·DEBRIS·🇨🇳 China

Запущен May 10, 1999 с Taiyuan Satellite Launch Center

Loading…

Ближайшие Пролёты (ближайшие 24 часа)

TLE

СвежийSource: Space-Track

Эпоха: Sep 14, 2026, 10:44 UTC

1 31658U 99025CBQ 26257.44758033  .00003069  00000-0  17083-2 0  9993
2 31658  98.1438  81.8199 0212217 261.0291  96.6804 14.00917488736742

Отслеживайте FENGYUN 1C DEB в реальном времени с AllMySat

Download on the App Store